Weather History for Ogallala, NE

Change the Weather History Date:

Sunday, November 25, 2012

  Actual Average Record
Temperature  
Mean Temperature 37 °F -  
Max Temperature 52 °F 47 °F 73 °F (1960)
Min Temperature 22 °F 19 °F -3 °F (1993)
Degree Days  
Heating Degree Days 28    
Moisture  
Dew Point 24 °F    
Average Humidity 62    
Maximum Humidity 84    
Minimum Humidity 45    
Precipitation  
Precipitation 0.00 in - - ()
Sea Level Pressure  
Sea Level Pressure 29.96 in    
Wind  
Wind Speed 5 mph (ESE)    
Max Wind Speed 13 mph    
Max Gust Speed 18 mph    
Visibility 10 miles    
Events      
Averages and records for this station are not official NWS values.
T = Trace of Precipitation, MM = Missing Value Source: NWS Daily Summary

Daily Weather History Graph

Daily Weather History Graph

Search for Another Location

Airport:

Trip Planner

Search our weather history database for the weather conditions in past years. The results will help you decide how hot, cold, wet, or windy it might be!

Date:

Astronomy

Nov. 25, 2012 Rise Set
Actual Time 6:47 AM MST 4:21 PM MST
Civil Twilight 6:16 AM MST 4:51 PM MST
Nautical Twilight 5:42 AM MST 5:25 PM MST
Astronomical Twilight 5:09 AM MST 5:58 PM MST
Moon 2:40 PM MST 4:01 AM MST
Length of Visible Light 10h 34m
Length of Day
9h 34m
Waxing Gibbous, 93% of the Moon is Illuminated
Nov 25
Waxing Gibbous
Nov 28
Full
Dec 6
Last Quarter
Dec 13
New
Dec 19
First Quarter

Hourly Weather History & Observations

Time (MST) Temp. Windchill Dew Point Humidity Pressure Visibility Wind Dir Wind Speed Gust Speed Precip Events Conditions
12:15 AM 28.2 °F - 18.7 °F 67% 29.96 in 10.0 mi Calm Calm - N/A   Clear
12:35 AM 28.2 °F - 19.4 °F 70% 29.96 in 10.0 mi Calm Calm - N/A   Clear
12:55 AM 26.8 °F - 17.8 °F 69% 29.96 in 10.0 mi Calm Calm - N/A   Clear
1:15 AM 25.7 °F 19.0 °F 17.2 °F 70% 29.96 in 10.0 mi WSW 5.8 mph - N/A   Clear
1:35 AM 24.4 °F 18.6 °F 16.3 °F 71% 29.96 in 10.0 mi West 4.6 mph - N/A   Clear
1:55 AM 23.9 °F 16.8 °F 16.2 °F 72% 29.97 in 10.0 mi West 5.8 mph - N/A   Clear
2:15 AM 22.1 °F 15.9 °F 15.4 °F 76% 29.97 in 10.0 mi WSW 4.6 mph - N/A   Clear
2:35 AM 23.2 °F 15.0 °F 16.3 °F 75% 29.97 in 10.0 mi West 6.9 mph - N/A   Clear
2:55 AM 23.2 °F 17.2 °F 16.5 °F 76% 29.96 in 10.0 mi WSW 4.6 mph - N/A   Clear
3:15 AM 24.4 °F 20.1 °F 17.2 °F 74% 29.96 in 10.0 mi West 3.5 mph - N/A   Clear
3:35 AM 23.7 °F 19.3 °F 17.2 °F 76% 29.97 in 10.0 mi West 3.5 mph - N/A   Clear
3:55 AM 25.5 °F 21.3 °F 18.3 °F 74% 29.96 in 10.0 mi West 3.5 mph - N/A   Clear
4:15 AM 25.9 °F 21.7 °F 19.4 °F 76% 29.97 in 10.0 mi West 3.5 mph - N/A   Clear
4:35 AM 27.3 °F 22.0 °F 19.4 °F 72% 29.97 in 10.0 mi WSW 4.6 mph - N/A   Clear
5:15 AM 28.0 °F - 19.8 °F 71% 29.97 in 10.0 mi Calm Calm - N/A   Clear
5:35 AM 28.2 °F 24.4 °F 20.1 °F 72% 29.97 in 10.0 mi West 3.5 mph - N/A   Clear
5:55 AM 27.9 °F - 19.4 °F 71% 29.97 in 10.0 mi Calm Calm - N/A   Clear
6:15 AM 27.1 °F - 19.2 °F 72% 29.97 in 10.0 mi Calm Calm - N/A   Clear
6:35 AM 25.3 °F 21.1 °F 18.3 °F 75% 29.97 in 10.0 mi West 3.5 mph - N/A   Clear
6:55 AM 26.6 °F - 19.4 °F 74% 29.98 in 10.0 mi Calm Calm - N/A   Clear
7:15 AM 27.9 °F 22.6 °F 20.8 °F 75% 29.98 in 10.0 mi West 4.6 mph - N/A   Clear
7:35 AM 29.5 °F - 21.4 °F 72% 29.98 in 10.0 mi Calm Calm - N/A   Clear
7:55 AM 30.7 °F - 21.2 °F 68% 29.99 in 10.0 mi Calm Calm - N/A   Clear
8:15 AM 32.0 °F - 21.9 °F 66% 29.99 in 10.0 mi Calm Calm - N/A   Clear
8:35 AM 32.9 °F - 22.1 °F 65% 30.00 in 10.0 mi Calm Calm - N/A   Clear
8:55 AM 34.2 °F - 23.0 °F 64% 30.00 in 10.0 mi Calm Calm - N/A   Clear
9:15 AM 37.0 °F - 23.7 °F 59% 29.99 in 10.0 mi Calm Calm - N/A   Clear
9:35 AM 40.1 °F - 25.0 °F 55% 29.99 in 10.0 mi Calm Calm - N/A   Clear
9:55 AM 42.6 °F - 27.3 °F 55% 29.99 in 10.0 mi Calm Calm - N/A   Clear
10:15 AM 45.5 °F 41.8 °F 30.2 °F 55% 29.98 in 10.0 mi ESE 6.9 mph - N/A   Clear
10:35 AM 46.8 °F - 31.1 °F 55% 29.97 in 10.0 mi East 8.1 mph - N/A   Clear
10:55 AM 48.0 °F - 31.1 °F 52% 29.96 in 10.0 mi ESE 9.2 mph - N/A   Clear
11:15 AM 49.3 °F - 31.1 °F 50% 29.95 in 10.0 mi ESE 10.4 mph 16.1 mph N/A   Clear
11:35 AM 49.8 °F - 31.1 °F 49% 29.93 in 10.0 mi SE 8.1 mph 16.1 mph N/A   Clear
11:55 AM 50.2 °F - 31.1 °F 48% 29.92 in 10.0 mi SE 8.1 mph - N/A   Clear
12:15 PM 51.1 °F - 31.5 °F 47% 29.91 in 10.0 mi SE 10.4 mph 16.1 mph N/A   Clear
12:35 PM 51.6 °F - 31.6 °F 46% 29.89 in 10.0 mi SE 12.7 mph 17.3 mph N/A   Clear
12:55 PM 52.0 °F - 31.8 °F 46% 29.88 in 10.0 mi ESE 11.5 mph 17.3 mph N/A   Clear
1:15 PM 51.8 °F - 31.6 °F 46% 29.88 in 10.0 mi SE 12.7 mph - N/A   Clear
1:35 PM 51.8 °F - 31.3 °F 46% 29.88 in 10.0 mi SE 11.5 mph 17.3 mph N/A   Clear
1:55 PM 52.0 °F - 30.9 °F 45% 29.87 in 10.0 mi SE 10.4 mph 18.4 mph N/A   Clear
2:15 PM 50.9 °F - 30.9 °F 46% 29.86 in 10.0 mi SE 8.1 mph - N/A   Clear
2:35 PM 50.4 °F - 30.7 °F 47% 29.87 in 10.0 mi SE 9.2 mph - N/A   Clear
2:55 PM 51.1 °F - 30.9 °F 46% 29.88 in 10.0 mi SE 9.2 mph - N/A   Clear
3:15 PM 51.1 °F - 30.7 °F 46% 29.88 in 10.0 mi SE 9.2 mph - N/A   Clear
3:35 PM 49.6 °F - 30.9 °F 49% 29.89 in 10.0 mi ESE 6.9 mph - N/A   Clear
3:55 PM 48.2 °F - 30.7 °F 51% 29.90 in 10.0 mi ESE 6.9 mph - N/A   Clear
4:15 PM 45.1 °F 39.9 °F 29.8 °F 55% 29.91 in 10.0 mi East 10.4 mph - N/A   Clear
4:35 PM 44.8 °F 39.0 °F 30.2 °F 57% 29.92 in 10.0 mi East 11.5 mph - N/A   Clear
4:55 PM 43.9 °F 38.8 °F 30.0 °F 58% 29.93 in 10.0 mi East 9.2 mph - N/A   Clear
5:15 PM 42.8 °F 37.5 °F 29.3 °F 59% 29.93 in 10.0 mi East 9.2 mph - N/A   Clear
5:35 PM 40.1 °F 34.1 °F 28.2 °F 63% 29.93 in 10.0 mi East 9.2 mph - N/A   Clear
5:55 PM 39.7 °F 33.7 °F 27.9 °F 63% 29.94 in 10.0 mi East 9.2 mph - N/A   Clear
6:15 PM 39.2 °F 33.0 °F 27.5 °F 63% 29.95 in 10.0 mi East 9.2 mph - N/A   Clear
6:35 PM 38.7 °F 31.8 °F 26.6 °F 62% 29.96 in 10.0 mi East 10.4 mph - N/A   Scattered Clouds
6:55 PM 37.8 °F 30.7 °F 26.1 °F 63% 29.97 in 10.0 mi East 10.4 mph - N/A   Mostly Cloudy
7:15 PM 37.8 °F 29.8 °F 24.1 °F 58% 29.98 in 10.0 mi East 12.7 mph - N/A   Overcast
7:35 PM 37.4 °F 29.8 °F 23.4 °F 57% 29.97 in 10.0 mi ESE 11.5 mph - N/A   Overcast
7:55 PM 37.4 °F 31.4 °F 23.0 °F 56% 29.98 in 10.0 mi ESE 8.1 mph - N/A   Overcast
8:15 PM 36.5 °F 31.0 °F 22.1 °F 56% 29.98 in 10.0 mi ESE 6.9 mph - N/A   Mostly Cloudy
8:35 PM 35.4 °F 29.0 °F 22.1 °F 58% 29.99 in 10.0 mi East 8.1 mph - N/A   Scattered Clouds
8:55 PM 34.2 °F 27.5 °F 21.9 °F 61% 30.01 in 10.0 mi East 8.1 mph - N/A   Clear
9:15 PM 33.8 °F 27.0 °F 21.7 °F 61% 30.02 in 10.0 mi East 8.1 mph - N/A   Clear
9:35 PM 33.8 °F 27.7 °F 21.2 °F 60% 30.04 in 10.0 mi ENE 6.9 mph - N/A   Scattered Clouds
9:55 PM 31.1 °F 25.4 °F 19.4 °F 62% 30.04 in 10.0 mi ENE 5.8 mph - N/A   Scattered Clouds
10:15 PM 30.0 °F 22.4 °F 18.5 °F 62% 30.05 in 10.0 mi NE 8.1 mph - N/A   Clear
10:35 PM 29.8 °F 23.0 °F 18.9 °F 64% 30.06 in 10.0 mi ENE 6.9 mph - N/A   Clear
10:55 PM 30.7 °F 22.0 °F 21.2 °F 68% 30.05 in 10.0 mi East 10.4 mph - N/A   Clear
11:15 PM 30.9 °F 23.5 °F 22.8 °F 72% 30.07 in 10.0 mi NE 8.1 mph - N/A   Clear
11:35 PM 29.5 °F 21.1 °F 23.5 °F 79% 30.07 in 10.0 mi ENE 9.2 mph - N/A   Clear
11:55 PM 28.8 °F 22.6 °F 24.4 °F 84% 30.09 in 10.0 mi NE 5.8 mph - N/A   Clear